Regional Weather Roundup
Issued by NWS

Home | Current Version | Previous Version | Graphics & Text | Print | Product List | Glossary On
Versions: 1 2 3 4 5 6 7 8 9 10 11 12 13 14 15 16 17 18 19 20 21 22 23 24 25 26 27 28 29 30 31 32 33 34 35 36 37 38 39 40 41 42 43 44 45 46 47 48 49 50
000
ASUS45 KBOU 212207
RWRCO

WEATHER ROUNDUP FOR COLORADO
NATIONAL WEATHER SERVICE DENVER/BOULDER CO
400 PM MDT THU MAY 21 2015

NOTE: "FAIR" INDICATES FEW OR NO CLOUDS BELOW 12000 FEET WITH NO
SIGNIFICANT WEATHER AND/OR OBSTRUCTIONS TO VISIBILITY.

COZ001>005-013-030-031-212300-
...NORTHWEST COLORADO...

CITY           SKY/WX    TMP DP  RH WIND       PRES   REMARKS
CRAIG          PTSUNNY   65  39  38 E14       30.00F
HAYDEN         PTSUNNY   63  34  34 E8G16     30.02F
MEEKER         CLOUDY    66  36  32 VRB5      29.98F
MOUNT WERNER   NOT AVBL
STEAMBOAT SPGS PTSUNNY   59  33  38 NW6       30.04F
WALDEN         CLOUDY    54  34  47 E8        30.13F
$$

COZ006>008-011-212300-
...WEST CENTRAL VALLEYS...

CITY           SKY/WX    TMP DP  RH WIND       PRES   REMARKS
GRAND JUNCTION CLOUDY    70  34  26 SE7       29.89F
MONTROSE       CLOUDY    63  36  36 S28G36    29.99F
EAGLE          CLOUDY    64  30  27 S15G29    30.03S
RIFLE          CLOUDY    70  34  26 N5        29.93F
DELTA          CLOUDY    72  33  24 S7        29.95S
NUCLA          CLOUDY    72  32  23 S10       29.97F
$$

COZ017>023-064>068-212300-
...SOUTHWEST COLORADO...

CITY           SKY/WX    TMP DP  RH WIND       PRES   REMARKS
DURANGO        CLOUDY    63  32  31 SE17G31   30.01F
CORTEZ         MOSUNNY   71  32  23 S16G28    29.95F
PAGOSA SPRINGS CLOUDY    65  18  16 SW10      30.07F
TELLURIDE      CLOUDY    55  25  32 S13G26    30.14S
WOLF CREEK PAS NOT AVBL
$$

COZ009-010-012-014-032>034-037-058>063-212300-
...CENTRAL COLORADO...

CITY           SKY/WX    TMP DP  RH WIND       PRES   REMARKS
ASPEN          CLOUDY    63  27  25 VRB5      30.02F
BUENA VISTA    LGT RAIN  50  37  60 NW14      30.15F
COPPER MTN     CLOUDY    45  23  42 E20G30    30.28F
BERTHOUD PASS  CLOUDY    30  23  74 E10       30.36F WCI  21
COTTONWOOD PAS LGT RAIN  41  36  81 W15G21    30.22F
GUNNISON       PTSUNNY   59  36  41 E14       30.08F
KREMMLING      CLOUDY    57  34  41 E20       30.09F
LEADVILLE      CLOUDY    46  31  55 S23G32    30.19F
SALIDA         CLOUDY    55  44  66 E8        30.19S
SUNLIGHT       CLOUDY    46  28  49 CALM      30.25F
WILKERSON PASS CLOUDY    39  32  75 S5        30.32F
$$

COZ069>075-212300-
...SAN LUIS VALLEY/SANGRE DE CRISTO MOUNTAINS...

CITY           SKY/WX    TMP DP  RH WIND       PRES   REMARKS
ALAMOSA        CLOUDY    64  33  31 S24       30.06F
LA VETA PASS   TSTM     N/A N/A N/A MISG      30.25F VSB 1/4
SAGUACHE       CLOUDY    63  36  36 S7        30.08F
$$

COZ035-036-038>040-212300-
...NORTHERN COLORADO FRONT RANGE...

CITY           SKY/WX    TMP DP  RH WIND       PRES   REMARKS
DENVER INTL AP CLOUDY    53  44  71 N8        30.12F
DMNS CITY PARK   N/A     53  41  65 NE5       30.12F
AURORA         CLOUDY    51  42  70 NW6       30.14F
FRONT RANGE AP CLOUDY    55  48  76 N8        30.13F
ERIE MUNI ARPT CLOUDY    52  43  70 N6        30.11F
BOULDER MUN AP CLOUDY    52  43  71 NW3       30.13F
CENTENNIAL     CLOUDY    51  42  71 N8        30.13F
BROOMFIELD     CLOUDY    50  43  76 CALM      30.14F
FORT COLLINS   CLOUDY    55  43  62 CALM      30.15F
LONGMONT       CLOUDY    57  44  60 CALM      30.15F
$$

COZ041-046-047-076>085-087-088-212300-
...PIKES PEAK/PALMER DIVIDE AND SOUTHERN FOOTHILLS...

CITY           SKY/WX    TMP DP  RH WIND       PRES   REMARKS
COLO. SPRINGS  CLOUDY    47  42  83 S9        30.18F
A. F. ACADEMY  CLOUDY    44  43  99 S6        30.17F
ELLICOTT       NOT AVBL
FALCON         CLOUDY    45  41  87 S10       30.20S
FORT CARSON    CLOUDY    49  44  83 S12       30.16F
LIMON          CLOUDY    47  43  86 SE18      30.18S
MONUMENT HILL  NOT AVBL
TRINIDAD       CLOUDY    55  45  68 N3        30.16F
$$

COZ042>045-048>051-090-091-212300-
...NORTHEAST COLORADO...

CITY           SKY/WX    TMP DP  RH WIND       PRES   REMARKS
GREELEY ARPT   CLOUDY    55  45  67 NW7       30.12F
AKRON          CLOUDY    55  45  68 SE18      30.16F
BURLINGTON     CLOUDY    54  43  66 SE16      30.20F
WRAY           CLOUDY    62  44  51 S9        30.19F
STERLING       CLOUDY    59  45  58 S14G20    30.15F
HOLYOKE        NOT AVBL
FORT MORGAN    CLOUDY    58  43  58 S15       30.14F
$$

COZ086-089-092>099-212300-
...SOUTHEAST COLORADO...

CITY           SKY/WX    TMP DP  RH WIND       PRES   REMARKS
PUEBLO         CLOUDY    52  46  80 SE9       30.15F
LA JUNTA       CLOUDY    58  46  64 SE17      30.15F
LAMAR          CLOUDY    57  45  64 SE15      30.16F
SPRINGFIELD      N/A     52  44  74 S13       30.20F
$$



USA.gov is the U.S. government's official web portal to all federal, state and local government web resources and services.